When you browse on this site, cookies collect data to enhance your experience and personalize the content and advertising you see.
Visit our Privacy Policy to learn more. By continuing to use the site, you agree to this use of cookies and data.
  • In Schweiz
  • Länderverzeichnis
  • Für 7 Tage
  • Wassertemperatur
  • Wetterkarte
  • Widgets
  • user-avatar
    Anmelden

    Stündliche Wetter Donskie Ozerki

    Heute, 21 August, Mittwoch

    Zeit Temperatur Niederschläge Wind Luftdruck Luftfeuchtigkeit
    00:00 +19°C° 0 mm 0 m/S 753 mmHg 75%
    01:00 +18°C° 0 mm 0 m/S 753 mmHg 76%
    02:00 +18°C° 0 mm 0 m/S 753 mmHg 77%
    03:00 +20°C° 0 mm 1 m/S 754 mmHg 78%
    04:00 +20°C° 0 mm 1 m/S 754 mmHg 79%
    05:00 +20°C° 0 mm 1 m/S 754 mmHg 80%
    06:00 +20°C° 0 mm 1 m/S 754 mmHg 81%
    07:00 +21°C° 0 mm 1 m/S 754 mmHg 76%
    08:00 +23°C° 0 mm 1 m/S 754 mmHg 72%
    09:00 +24°C° 0 mm 1 m/S 754 mmHg 67%
    10:00 +25°C° 0 mm 1 m/S 754 mmHg 64%
    11:00 +26°C° 0 mm 1 m/S 754 mmHg 61%
    12:00 +28°C° 0 mm 1 m/S 754 mmHg 58%
    13:00 +28°C° 0 mm 1 m/S 754 mmHg 56%
    14:00 +28°C° 0 mm 1 m/S 754 mmHg 55%
    15:00 +29°C° 0 mm 2 m/S 754 mmHg 53%
    16:00 +28°C° 0 mm 2 m/S 753 mmHg 57%
    17:00 +28°C° 0 mm 2 m/S 753 mmHg 60%
    18:00 +28°C° 0 mm 1 m/S 753 mmHg 64%
    19:00 +26°C° 0 mm 1 m/S 753 mmHg 68%
    20:00 +25°C° 0 mm 1 m/S 752 mmHg 72%
    21:00 +23°C° 0 mm 1 m/S 752 mmHg 76%
    22:00 +23°C° 0 mm 1 m/S 752 mmHg 78%
    23:00 +22°C° 0 mm 1 m/S 752 mmHg 80%

    Morgen, 22 August, Donnerstag

    Zeit Temperatur Niederschläge Wind Luftdruck Luftfeuchtigkeit
    00:00 +22°C° 0 mm 1 m/S 752 mmHg 83%
    01:00 +22°C° 0 mm 1 m/S 752 mmHg 84%
    02:00 +21°C° 0 mm 1 m/S 752 mmHg 85%
    03:00 +21°C° 0 mm 1 m/S 752 mmHg 86%
    04:00 +21°C° 0 mm 1 m/S 752 mmHg 87%
    05:00 +21°C° 0 mm 1 m/S 752 mmHg 88%
    06:00 +20°C° 0 mm 1 m/S 752 mmHg 88%
    07:00 +22°C° 0 mm 1 m/S 752 mmHg 83%
    08:00 +23°C° 0 mm 1 m/S 752 mmHg 77%
    09:00 +25°C° 0 mm 1 m/S 752 mmHg 72%
    10:00 +26°C° 0 mm 1 m/S 752 mmHg 67%
    11:00 +27°C° 0 mm 1 m/S 752 mmHg 63%
    12:00 +28°C° 0 mm 1 m/S 751 mmHg 59%
    13:00 +28°C° 0 mm 1 m/S 751 mmHg 57%
    14:00 +29°C° 0 mm 1 m/S 751 mmHg 55%
    15:00 +29°C° 0 mm 1 m/S 751 mmHg 53%
    16:00 +29°C° 0 mm 1 m/S 751 mmHg 56%
    17:00 +28°C° 0 mm 1 m/S 751 mmHg 60%
    18:00 +28°C° 0 mm 1 m/S 751 mmHg 63%
    19:00 +26°C° 0.1 mm 3 m/S 751 mmHg 70%
    20:00 +25°C° 0.1 mm 4 m/S 752 mmHg 77%
    21:00 +22°C° 0.1 mm 5 m/S 752 mmHg 84%
    22:00 +20°C° 0 mm 5 m/S 752 mmHg 86%
    23:00 +19°C° 0 mm 5 m/S 752 mmHg 88%

    übermorgen, 23 August, Freitag

    Zeit Temperatur Niederschläge Wind Luftdruck Luftfeuchtigkeit
    00:00 +17°C° 0 mm 6 m/S 753 mmHg 90%
    01:00 +16°C° 0 mm 5 m/S 753 mmHg 89%
    02:00 +16°C° 0 mm 5 m/S 753 mmHg 88%
    03:00 +16°C° 0 mm 5 m/S 754 mmHg 87%
    04:00 +15°C° 0 mm 5 m/S 754 mmHg 88%
    05:00 +15°C° 0 mm 5 m/S 754 mmHg 88%
    06:00 +14°C° 0 mm 4 m/S 754 mmHg 89%
    07:00 +15°C° 0 mm 5 m/S 754 mmHg 84%
    08:00 +16°C° 0 mm 5 m/S 755 mmHg 80%
    09:00 +17°C° 0 mm 5 m/S 755 mmHg 75%
    10:00 +19°C° 0 mm 5 m/S 755 mmHg 71%
    11:00 +20°C° 0 mm 5 m/S 755 mmHg 67%
    12:00 +21°C° 0 mm 5 m/S 755 mmHg 63%
    13:00 +22°C° 0 mm 5 m/S 755 mmHg 62%
    14:00 +22°C° 0 mm 5 m/S 755 mmHg 60%
    15:00 +22°C° 0 mm 5 m/S 755 mmHg 58%
    16:00 +22°C° 0 mm 4 m/S 755 mmHg 61%
    17:00 +21°C° 0 mm 4 m/S 755 mmHg 64%
    18:00 +21°C° 0 mm 3 m/S 755 mmHg 68%
    19:00 +19°C° 0 mm 3 m/S 755 mmHg 71%
    20:00 +18°C° 0 mm 3 m/S 755 mmHg 74%
    21:00 +17°C° 0 mm 3 m/S 755 mmHg 77%
    22:00 +16°C° 0 mm 3 m/S 755 mmHg 79%
    23:00 +16°C° 0 mm 2 m/S 755 mmHg 80%

    24 August, Samstag

    Zeit Temperatur Niederschläge Wind Luftdruck Luftfeuchtigkeit
    00:00 +15°C° 0 mm 2 m/S 755 mmHg 81%
    01:00 +15°C° 0 mm 2 m/S 755 mmHg 81%
    02:00 +14°C° 0 mm 2 m/S 755 mmHg 81%
    03:00 +14°C° 0 mm 2 m/S 755 mmHg 81%
    04:00 +14°C° 0 mm 2 m/S 755 mmHg 82%
    05:00 +14°C° 0 mm 2 m/S 756 mmHg 82%
    06:00 +13°C° 0 mm 2 m/S 756 mmHg 83%
    07:00 +15°C° 0 mm 2 m/S 756 mmHg 77%
    08:00 +17°C° 0 mm 2 m/S 756 mmHg 71%
    09:00 +19°C° 0 mm 2 m/S 756 mmHg 65%
    10:00 +21°C° 0 mm 1 m/S 756 mmHg 59%
    11:00 +22°C° 0 mm 1 m/S 756 mmHg 54%
    12:00 +24°C° 0 mm 1 m/S 756 mmHg 49%
    13:00 +24°C° 0 mm 1 m/S 756 mmHg 47%
    14:00 +24°C° 0 mm 1 m/S 755 mmHg 45%
    15:00 +25°C° 0 mm 1 m/S 755 mmHg 44%
    16:00 +24°C° 0 mm 1 m/S 755 mmHg 48%
    17:00 +24°C° 0 mm 1 m/S 754 mmHg 52%
    18:00 +23°C° 0 mm 1 m/S 754 mmHg 56%
    19:00 +22°C° 0 mm 1 m/S 754 mmHg 59%
    20:00 +20°C° 0 mm 1 m/S 754 mmHg 62%
    21:00 +17°C° 0 mm 0 m/S 754 mmHg 65%
    22:00 +16°C° 0 mm 0 m/S 754 mmHg 67%
    23:00 +16°C° 0 mm 0 m/S 754 mmHg 68%

    25 August, Sonntag

    Zeit Temperatur Niederschläge Wind Luftdruck Luftfeuchtigkeit
    00:00 +18°C° 0 mm 1 m/S 754 mmHg 69%
    01:00 +16°C° 0 mm 1 m/S 754 mmHg 70%
    02:00 +16°C° 0 mm 1 m/S 754 mmHg 72%
    03:00 +16°C° 0 mm 2 m/S 753 mmHg 73%
    04:00 +15°C° 0 mm 2 m/S 753 mmHg 75%
    05:00 +15°C° 0 mm 2 m/S 753 mmHg 77%
    06:00 +15°C° 0 mm 2 m/S 753 mmHg 79%
    07:00 +16°C° 0 mm 2 m/S 753 mmHg 75%
    08:00 +18°C° 0 mm 2 m/S 753 mmHg 71%
    09:00 +20°C° 0 mm 3 m/S 753 mmHg 67%
    10:00 +21°C° 0 mm 3 m/S 753 mmHg 63%
    11:00 +22°C° 0 mm 3 m/S 752 mmHg 59%
    12:00 +24°C° 0 mm 3 m/S 752 mmHg 55%
    13:00 +24°C° 0 mm 3 m/S 752 mmHg 55%
    14:00 +25°C° 0 mm 4 m/S 752 mmHg 54%
    15:00 +25°C° 0 mm 4 m/S 752 mmHg 54%
    16:00 +23°C° 0.2 mm 4 m/S 752 mmHg 60%
    17:00 +22°C° 0.2 mm 4 m/S 751 mmHg 66%
    18:00 +21°C° 0.2 mm 3 m/S 751 mmHg 72%
    19:00 +20°C° 0.1 mm 3 m/S 752 mmHg 78%
    20:00 +19°C° 0.1 mm 3 m/S 752 mmHg 84%
    21:00 +17°C° 0.1 mm 3 m/S 752 mmHg 90%
    22:00 +16°C° 0 mm 3 m/S 753 mmHg 89%
    23:00 +16°C° 0 mm 3 m/S 753 mmHg 89%

    26 August, Montag

    Zeit Temperatur Niederschläge Wind Luftdruck Luftfeuchtigkeit
    00:00 +14°C° 0 mm 3 m/S 754 mmHg 88%
    01:00 +13°C° 0 mm 3 m/S 754 mmHg 90%
    02:00 +13°C° 0 mm 3 m/S 754 mmHg 91%
    03:00 +12°C° 0 mm 3 m/S 755 mmHg 92%
    04:00 +11°C° 0 mm 3 m/S 755 mmHg 93%
    05:00 +11°C° 0 mm 3 m/S 755 mmHg 94%
    06:00 +11°C° 0 mm 3 m/S 756 mmHg 95%
    07:00 +12°C° 0 mm 3 m/S 756 mmHg 89%
    08:00 +13°C° 0 mm 3 m/S 756 mmHg 84%
    09:00 +14°C° 0 mm 4 m/S 757 mmHg 78%
    10:00 +17°C° 0 mm 4 m/S 757 mmHg 72%
    11:00 +18°C° 0 mm 4 m/S 757 mmHg 66%
    12:00 +19°C° 0 mm 4 m/S 757 mmHg 60%
    13:00 +19°C° 0 mm 3 m/S 757 mmHg 57%
    14:00 +20°C° 0 mm 3 m/S 757 mmHg 54%
    15:00 +20°C° 0 mm 3 m/S 757 mmHg 51%
    16:00 +20°C° 0 mm 3 m/S 757 mmHg 55%
    17:00 +19°C° 0 mm 2 m/S 757 mmHg 58%
    18:00 +19°C° 0 mm 2 m/S 757 mmHg 61%
    19:00 +17°C° 0 mm 2 m/S 757 mmHg 64%
    20:00 +16°C° 0 mm 2 m/S 757 mmHg 68%
    21:00 +14°C° 0 mm 2 m/S 757 mmHg 71%
    22:00 +14°C° 0 mm 1 m/S 757 mmHg 72%
    23:00 +13°C° 0 mm 1 m/S 757 mmHg 73%
    Mehr zeigen